Idaho Falls, ID

3:03 AM MST on January 24, 2018 (GMT -0700)
Fanning

Weather History for KIDA - June, 2013

Change the Weather History Date:

Thursday, June 27, 2013

  Actual Average Record
Temperature  
Mean Temperature 71 °F 64 °F  
Max Temperature 93 °F 81 °F 97 °F (2015)
Min Temperature 49 °F 48 °F 34 °F (1976)
Degree Days  
Heating Degree Days 0 3  
Month to date heating degree days 100 146  
Since 1 June heating degree days 100 146  
Since 1 July heating degree days 7515 7837  
Cooling Degree Days 6 2  
Month to date cooling degree days 38 22  
Year to date cooling degree days 42 24  
Since 1 June cooling degree days 38 22  
Growing Degree Days 20 (Base 50)    
Moisture  
Dew Point 48 °F    
Average Humidity 54    
Maximum Humidity 89    
Minimum Humidity 18    
Precipitation  
Precipitation 0.00 in 0.02 in 0.71 in (1967)
Month to date precipitation 0.13 1.04  
Year to date precipitation 1.91 5.89  
Sea Level Pressure  
Sea Level Pressure 30.11 in    
Wind  
Wind Speed 7 mph (SSW)    
Max Wind Speed 16 mph    
Max Gust Speed 21 mph    
Visibility 10 miles    
Events      
T = Trace of Precipitation, MM = Missing Value Source: NWS Daily Summary

Daily Weather History Graph

Daily Weather History Graph

Search for Another Location

Airport or City:

Trip Planner

Search our weather history database for the weather conditions in past years. The results will help you decide how hot, cold, wet, or windy it might be!

Date:

Astronomy

Jun. 27, 2013 Rise Set
Actual Time 5:49 AM MDT 9:13 PM MDT
Civil Twilight 5:13 AM MDT 9:49 PM MDT
Nautical Twilight 4:26 AM MDT 10:35 PM MDT
Astronomical Twilight 3:28 AM MDT 11:34 PM MDT
Moon No Moon Rise 11:04 AM MDT (6/27)
Length of Visible Light 16h 35m
Length of Day
15h 24m
Waning Gibbous, 76% of the Moon is Illuminated
Jun 27
Waning Gibbous
Jun 29
Last Quarter
Jul 8
New
Jul 15
First Quarter
Jul 22
Full

Hourly Weather History & Observations

Time (MDT) Temp. Dew Point Humidity Pressure Visibility Wind Dir Wind Speed Gust Speed Precip Events Conditions
12:53 AM 57.9 °F 53.1 °F 84% 30.06 in 10.0 mi Calm Calm - N/A   Clear
1:53 AM 57.9 °F 51.1 °F 78% 30.07 in 10.0 mi Calm Calm - N/A   Clear
2:53 AM 57.0 °F 50.0 °F 77% 30.08 in 10.0 mi Calm Calm - N/A   Clear
3:53 AM 52.0 °F 48.0 °F 86% 30.09 in 10.0 mi Calm Calm - N/A   Clear
4:53 AM 53.1 °F 46.9 °F 80% 30.10 in 10.0 mi NNW 5.8 mph - N/A   Clear
5:53 AM 50.0 °F 46.0 °F 86% 30.12 in 10.0 mi NNW 4.6 mph - N/A   Clear
6:53 AM 53.1 °F 48.0 °F 83% 30.13 in 10.0 mi North 4.6 mph - N/A   Clear
7:53 AM 60.1 °F 52.0 °F 75% 30.14 in 10.0 mi North 3.5 mph - N/A   Clear
8:53 AM 68.0 °F 51.1 °F 55% 30.14 in 10.0 mi NNW 3.5 mph - N/A   Clear
9:53 AM 72.0 °F 51.1 °F 48% 30.16 in 10.0 mi Calm Calm - N/A   Clear
10:53 AM 75.9 °F 53.1 °F 45% 30.18 in 10.0 mi North - - N/A   Clear
11:53 AM 80.1 °F 50.0 °F 35% 30.18 in 10.0 mi WSW 5.8 mph - N/A   Clear
12:53 PM 84.9 °F 48.9 °F 29% 30.15 in 10.0 mi SSW 6.9 mph - N/A   Clear
1:53 PM 87.1 °F 45.0 °F 23% 30.13 in 10.0 mi SW 8.1 mph 16.1 mph N/A   Clear
2:53 PM 90.0 °F 43.0 °F 19% 30.12 in 10.0 mi SSW 10.4 mph - N/A   Clear
3:53 PM 91.0 °F 43.0 °F 19% 30.12 in 10.0 mi South 13.8 mph 18.4 mph N/A   Clear
4:53 PM 91.9 °F 44.1 °F 19% 30.09 in 10.0 mi South 12.7 mph - N/A   Clear
5:53 PM 91.9 °F 44.1 °F 19% 30.09 in 10.0 mi South 13.8 mph - N/A   Clear
6:53 PM 91.9 °F 43.0 °F 18% 30.06 in 10.0 mi South 15.0 mph - N/A   Clear
7:53 PM 90.0 °F 45.0 °F 21% 30.06 in 10.0 mi South 8.1 mph - N/A   Clear
8:53 PM 87.1 °F 46.0 °F 24% 30.04 in 10.0 mi South 8.1 mph - N/A   Clear
9:53 PM 82.0 °F 44.1 °F 26% 30.06 in 10.0 mi South 8.1 mph - N/A   Clear
10:53 PM 72.0 °F 52.0 °F 49% 30.09 in 10.0 mi SSW 3.5 mph - N/A   Clear
11:53 PM 75.9 °F 48.0 °F 37% 30.08 in 10.0 mi South 6.9 mph - N/A   Clear